SCP
10 10 8 8 10 10 8 7 6 4 3 2 2 2 2 2 1 2 2 1 1 1 1 1 0 0 0 0 0 0 0 0 0 0 0 0 0 0 0 0 0 0 0
9 9 8 8 10 10 8 7 6 4 4 3 3 2 2 2 2 2 2 2 2 1 1 1 0 0 0 0 0 0 0 0 0 0 0 0 0 0 0 0 0 0 0
7 7 7 7 8 8 8 7 6 5 5 4 3 3 2 2 2 2 2 3 2 1 1 1 1 0 0 0 0 0 0 0 0 0 0 0 0 0 0 0 0 0 0
6 6 6 6 6 6 6 7 7 8 7 6 5 4 3 2 2 2 3 3 2 2 1 1 1 0 0 0 0 0 0 0 0 0 0 0 0 0 0 0 0 0 0
5 5 5 5 5 5 6 7 8 10 10 8 6 4 3 2 2 2 3 3 2 2 1 1 1 0 0 0 0 0 0 0 0 0 0 0 0 0 0 0 0 0 0
5 5 5 4 4 5 6 7 8 10 10 9 7 4 3 2 2 2 3 3 2 2 2 1 1 1 0 0 0 0 0 0 0 0 0 0 0 0 0 0 0 0 0
5 5 4 4 4 4 6 6 7 8 9 8 6 4 3 3 2 2 2 2 2 2 2 2 1 1 1 0 0 0 0 0 0 0 0 0 0 0 0 0 0 0 0
4 4 4 4 4 4 5 5 6 6 7 6 5 3 3 3 2 2 2 2 2 2 2 2 1 1 1 0 0 0 0 0 0 0 0 0 0 0 0 0 0 0 0
3 3 3 4 4 4 4 4 5 4 4 4 4 3 3 3 2 2 2 2 1 1 1 2 2 1 1 1 0 0 0 0 0 0 0 0 0 0 0 0 0 0 0
2 2 3 3 4 4 4 4 4 4 3 3 3 2 2 2 2 2 1 1 1 1 1 1 1 1 1 1 0 0 0 0 0 0 0 0 0 0 0 0 0 0 0
2 2 3 3 3 3 4 4 3 3 2 2 2 2 2 1 1 1 1 1 1 1 1 1 1 1 1 1 0 0 0 0 0 0 0 0 0 0 0 0 0 0 0
2 2 3 3 3 3 3 3 2 2 1 1 1 1 1 1 1 1 1 1 1 1 1 1 1 1 1 1 0 0 0 0 0 0 0 0 0 0 0 0 0 0 0
1 2 3 3 3 3 3 2 2 1 1 1 1 1 1 1 1 1 0 0 1 1 1 1 1 1 1 1 1 1 0 0 0 0 0 0 0 0 0 0 0 0 0
2 2 2 3 3 2 2 2 2 1 1 1 1 1 1 1 0 0 0 0 0 1 1 1 1 1 1 1 1 1 1 0 0 0 0 0 0 0 0 0 0 0 0
2 2 2 2 2 2 2 1 1 1 1 1 1 1 1 1 0 0 0 0 0 1 1 1 1 1 1 1 1 1 1 0 0 0 0 0 0 0 0 0 0 0 0
2 2 2 2 2 2 1 1 1 1 1 1 1 1 1 1 1 1 1 1 1 1 1 1 1 1 1 1 1 1 1 0 0 0 0 0 0 0 0 0 0 0 0
3 2 2 2 2 1 1 1 1 1 1 1 1 1 1 1 1 1 1 1 1 1 1 1 1 1 1 0 0 0 0 0 0 0 0 0 0 0 0 0 0 0 0
4 3 3 2 2 2 1 1 1 1 1 1 1 1 1 1 1 1 1 1 1 1 1 1 1 1 1 0 0 0 0 0 0 0 0 0 0 0 0 0 0 0 0
5 4 3 2 2 2 2 2 1 1 1 1 1 1 1 1 1 1 1 1 1 1 1 1 1 1 1 0 0 0 0 0 0 0 0 0 0 0 0 0 0 0 0
4 3 2 2 2 2 2 2 1 1 1 1 1 1 2 2 2 2 2 1 1 1 1 1 1 1 1 0 0 0 0 0 0 0 0 0 0 0 0 0 0 0 0
2 2 2 1 2 2 2 2 2 1 2 2 2 2 2 2 2 2 2 2 2 1 1 1 1 1 1 0 0 0 0 0 0 0 0 0 0 0 0 0 0 0 0
2 2 2 2 2 2 2 2 1 1 2 2 2 2 2 3 3 2 2 2 2 1 1 1 1 1 1 0 0 0 0 0 0 0 0 0 0 0 0 0 0 0 0
1 2 2 2 1 1 1 1 1 1 1 2 2 3 3 3 3 3 2 2 2 2 2 1 1 1 1 0 0 0 0 0 0 0 0 0 0 0 0 0 0 0 0
1 1 1 1 1 1 1 1 1 1 1 1 2 2 3 3 3 3 3 3 2 2 2 2 2 1 1 1 0 0 0 0 0 0 0 0 0 0 0 0 0 0 0
1 1 1 0 0 0 0 0 1 1 1 1 2 2 2 3 3 3 3 2 2 2 2 2 2 2 1 1 0 0 0 0 0 0 0 0 0 0 0 0 0 0 0
0 0 0 0 0 0 0 0 0 0 1 1 2 2 2 2 2 2 2 1 1 1 1 2 2 2 2 1 0 0 0 0 0 0 0 0 0 0 0 0 0 0 0
Wind_Speed
10 11 12 13 13 12 12 13 13 13 11 9 8 8 7 6 6 6 8 8 7 7 6 5 4 4 4 4 4 3 2 1 1 2 2 2 1 1 3 3 4 5 6
7 9 11 12 13 14 14 13 13 13 13 10 8 6 7 5 6 6 7 8 8 7 7 6 5 5 4 4 4 3 3 1 2 3 2 2 3 3 1 2 4 5 4
13 11 11 11 13 14 15 14 14 13 12 11 7 6 5 4 4 5 6 7 8 7 6 7 6 5 5 4 4 4 5 3 1 2 4 3 3 2 3 2 2 4 4
12 11 11 10 12 12 11 12 13 12 11 12 11 12 9 8 7 6 6 7 7 7 7 7 6 6 4 5 5 4 3 4 2 1 1 2 4 3 1 2 2 2 4
10 11 11 11 10 10 10 10 11 11 11 12 12 12 8 6 5 6 7 7 6 7 7 7 6 6 5 5 5 4 4 3 4 3 1 1 1 2 3 2 2 2 2
8 7 7 7 7 8 9 10 11 11 11 12 12 11 11 10 10 9 9 7 5 5 7 7 6 6 5 5 5 4 5 4 3 3 3 3 2 2 3 2 2 3 3
7 7 7 7 7 8 8 9 11 10 11 11 11 11 11 12 13 10 9 8 6 4 7 7 6 5 5 5 5 5 5 4 4 4 3 2 3 3 3 3 2 2 3
7 8 7 7 7 8 8 9 10 9 10 11 11 10 10 8 7 9 8 8 6 6 7 7 7 6 6 6 5 4 4 4 4 4 4 2 2 2 3 3 3 1 2
5 6 7 6 6 6 7 9 10 10 10 10 10 9 10 9 9 9 8 6 6 6 8 8 7 7 6 6 6 4 4 4 4 4 3 2 2 2 2 2 3 4 2
4 5 6 6 6 6 5 6 8 9 8 9 9 10 9 9 9 9 9 8 7 7 8 8 7 7 6 6 5 4 4 4 4 3 3 3 2 1 1 2 2 3 4
3 5 5 5 5 5 6 6 6 7 7 8 8 8 8 9 8 8 9 8 7 8 8 8 8 7 6 6 5 5 5 5 4 3 4 4 3 2 1 1 1 2 3
3 4 5 5 5 5 5 6 6 6 6 7 7 8 8 8 8 8 8 8 8 8 8 8 8 8 7 7 7 7 6 6 6 5 4 4 3 3 2 1 1 2 2
4 4 4 5 5 5 5 6 6 6 6 6 7 7 7 8 8 8 8 8 8 8 8 8 9 8 8 7 7 7 6 7 6 6 5 5 4 4 3 3 2 2 2
5 5 4 4 5 5 6 6 6 5 6 6 7 8 8 8 8 7 7 8 8 8 8 8 8 8 8 8 7 7 6 6 6 6 6 6 6 6 5 4 4 3 2
6 6 5 5 4 4 5 5 5 6 7 7 7 8 8 7 7 7 7 7 7 8 8 8 7 7 7 7 7 7 7 6 6 5 5 6 7 8 7 5 4 4 3
6 6 6 5 5 5 5 5 5 6 6 7 7 7 7 7 7 7 7 7 7 7 7 8 8 7 7 8 11 8 6 6 6 6 5 5 6 8 10 10 9 7 6
5 4 4 4 4 5 5 6 6 5 6 6 6 7 8 8 8 8 7 8 7 7 6 7 7 7 7 9 10 10 7 6 6 6 5 5 5 6 5 7 8 8 9
3 2 2 2 2 3 3 4 5 6 6 6 6 6 7 8 7 7 7 6 5 6 6 6 6 5 4 6 7 8 6 4 5 5 5 5 5 4 5 4 4 5 6
3 2 2 2 2 2 3 5 5 5 6 6 6 7 7 8 8 8 7 6 5 5 4 4 5 4 3 5 7 7 4 3 4 4 4 4 4 4 6 4 5 5 6
4 4 3 3 3 1 3 5 5 4 4 4 5 5 6 6 7 7 6 5 5 5 4 3 3 3 2 3 5 7 3 3 2 2 2 2 3 3 3 4 4 5 5
6 6 7 6 4 3 5 6 5 4 2 2 3 4 4 5 5 5 5 5 5 5 5 4 3 2 1 1 2 4 3 3 2 2 1 1 2 2 3 4 4 5 4
8 8 8 8 7 7 7 8 6 3 4 5 6 5 5 4 5 6 5 5 6 6 5 4 3 2 2 2 2 2 3 2 2 1 1 1 1 1 1 2 2 3 2
8 8 9 10 9 8 8 9 5 5 7 8 8 7 7 7 6 6 6 5 4 4 3 3 3 2 2 2 4 3 2 2 1 0 1 1 1 1 1 1 2 1 0
8 8 10 11 10 9 9 8 6 6 8 9 7 7 7 8 7 6 5 5 4 4 4 3 3 2 2 2 2 2 1 2 2 1 2 2 3 2 2 2 2 1 0
7 8 9 9 8 8 9 7 7 8 9 9 7 7 6 6 7 7 6 5 4 3 4 3 3 3 2 1 2 2 1 1 1 1 2 3 3 3 3 3 2 2 2
8 9 9 9 8 8 8 7 7 7 8 8 6 5 4 4 5 6 7 12 9 10 10 7 5 3 3 3 4 4 4 4 5 5 4 3 3 3 2 3 3 3 2
Wind_Direction
183 173 170 166 162 162 168 174 171 171 166 165 163 163 168 167 166 169 164 165 164 160 156 158 154 150 151 158 152 137 136 134 128 87 38 359 354 189 197 194 183 195 200
167 174 174 171 168 170 174 174 175 174 173 173 169 166 160 165 167 169 165 167 165 165 166 160 162 156 149 152 153 142 136 144 139 128 103 23 347 332 249 201 196 200 195
175 178 178 180 175 177 180 180 179 176 174 165 150 146 138 134 152 169 171 175 171 170 166 165 161 162 159 166 169 160 150 156 173 148 142 148 213 286 317 263 212 196 194
175 178 182 180 183 184 181 180 180 177 173 166 165 166 168 171 179 175 172 174 175 171 170 167 164 166 165 171 178 167 156 148 157 169 159 161 158 155 276 315 290 226 205
177 181 182 181 184 183 182 181 178 177 175 173 174 174 172 170 158 160 166 174 177 175 174 169 166 169 173 178 175 163 161 157 159 164 162 136 124 137 149 236 288 295 248
178 182 178 171 177 177 176 175 176 179 177 175 176 177 172 167 164 169 173 176 175 177 177 174 172 173 175 180 179 173 170 170 162 162 160 163 167 183 167 188 229 247 264
171 173 174 172 171 171 175 178 178 182 180 177 179 179 176 174 176 175 177 175 174 178 184 178 176 175 180 180 175 172 176 171 167 174 176 180 190 175 166 164 197 236 277
175 176 178 173 169 171 175 177 179 182 182 182 183 182 178 177 178 177 175 179 181 181 179 175 175 178 178 181 174 174 180 173 174 183 178 178 197 180 175 169 159 174 299
170 169 167 169 166 169 181 181 180 179 180 185 185 183 180 179 179 175 174 175 177 178 177 176 176 182 182 179 170 175 183 174 182 184 180 187 200 189 188 172 163 158 192
156 165 170 172 169 166 168 167 173 177 179 182 186 185 183 182 176 170 174 176 179 179 174 179 179 180 179 175 170 173 184 180 186 180 178 194 202 184 170 172 173 166 170
167 173 164 156 153 153 157 163 172 172 176 177 175 176 177 173 169 172 177 177 177 177 177 179 178 179 179 177 176 183 183 185 192 190 187 202 191 178 179 167 165 171 161
166 154 155 149 152 161 164 168 170 172 174 171 168 171 168 166 169 174 177 175 177 177 178 176 177 181 182 181 182 190 191 190 195 198 193 209 199 195 195 187 200 197 185
144 132 144 161 169 172 170 170 175 173 167 165 163 162 165 168 172 173 174 175 175 177 177 175 181 185 186 187 190 190 193 197 200 198 199 207 196 207 207 202 207 214 207
144 147 160 167 168 168 172 172 178 174 170 167 166 167 171 175 175 172 172 176 175 177 180 181 185 187 188 190 193 194 197 200 205 205 204 205 201 206 207 209 211 208 206
157 163 170 169 166 168 169 171 174 174 174 170 171 175 174 174 172 173 175 176 179 183 181 180 184 187 190 197 194 197 200 199 206 213 215 215 212 210 207 207 205 199 203
160 169 175 170 170 175 180 175 176 177 171 173 178 178 172 173 176 177 176 177 181 181 179 184 186 191 201 199 195 195 198 194 203 216 223 226 221 222 219 218 210 197 197
152 162 169 173 185 187 184 183 182 172 169 177 180 177 174 179 184 181 178 181 183 180 181 185 185 193 203 199 194 197 195 199 206 210 214 224 222 216 219 225 225 223 222
130 145 146 171 198 184 179 175 169 165 171 178 183 180 179 183 179 174 177 183 180 181 185 187 187 184 197 198 199 200 200 204 210 209 208 214 229 224 213 220 229 234 236
107 116 129 153 165 172 174 159 157 161 169 182 189 186 182 181 177 178 178 175 169 170 171 170 173 171 187 196 198 191 189 204 218 218 215 211 222 238 223 217 232 246 255
66 66 73 84 101 119 138 134 138 143 166 188 191 180 173 172 171 173 169 161 156 161 153 147 150 160 172 179 185 186 183 195 216 229 228 216 220 241 227 216 226 245 258
62 63 66 65 57 71 102 103 101 110 135 131 125 124 134 142 145 140 135 132 135 131 128 127 119 111 109 97 155 175 178 194 203 213 221 234 239 247 244 225 223 237 245
60 63 71 64 50 56 82 87 79 76 82 88 91 93 100 109 112 111 113 118 128 128 129 125 108 80 62 54 65 130 167 172 168 207 234 239 234 240 262 241 247 260 262
66 64 72 66 52 47 65 76 63 72 84 84 82 81 81 78 82 97 104 102 105 115 115 114 113 89 61 47 52 71 104 110 136 94 25 26 35 16 322 289 278 281 280
66 69 72 70 58 49 53 58 59 71 85 88 85 83 84 80 72 74 82 90 94 103 104 104 106 97 71 45 39 43 50 53 60 37 24 38 48 42 9 354 347 343 339
67 67 71 71 62 54 51 46 52 69 76 79 83 80 79 86 82 70 57 69 65 95 117 116 112 101 82 12 53 78 55 51 65 69 55 47 39 34 24 18 14 18 25
75 71 68 65 58 56 52 40 44 64 76 76 75 81 86 88 93 95 76 53 64 68 74 81 94 80 87 78 71 69 70 74 83 84 67 55 46 39 27 21 14 17 14